Location: Ailly
(50.0793°N, 1.9944°E)
Time: 09:51:55
(UTC+00:00)

Timation 2 Rocket - Pass Details

Date: 15 January 2026
Orbit: 907 x 1072 km, 70.0° (Epoch: 19 February)

Event Time Altitude Azimuth Distance (km) Brightness Sun altitude
Rises 06:47:41 0° 229° (SW) 3,777 6.8 -9.0°
Reaches altitude 10° 06:50:26 10° 235° (SW) 2,805 6.1 -8.6°
Maximum altitude 06:56:45 49° 309° (NW) 1,257 4.2 -7.6°
Drops below altitude 10° 07:02:51 10° 25° (NNE) 2,704 6.3 -6.7°
Sets 07:05:28 0° 31° (NNE) 3,630 7.1 -6.4°
